STARLINK-35264

Last updated on Mon Oct 20 2025 00:02:08 GMT+0000 (Coordinated Universal Time)

1 65900U 25224U 25292.25002315 -.01350970 00000+0 -60845-2 0 9994 2 65900 53.1504 313.3405 0000944 81.9578 114.3366 15.86108395 3142
UTC large
Height (km)
Speed (km/s)
/
Latitude / Longitude
Inclination (degrees)
Orbital Period (minutes)
Azimuth
Elevation
Range (km)
Doppler Factor

Next 0 passes for location: London (51.5072 / 0.1276)

Sorry there are no passes over London.